Location: Boss Branch
(32.3799°N, 97.2508°W)
Time: 14:34:54
(UTC+00:00)

deb Explorer IX - Pass Details

Date: 16 November 2024
Orbit: 492 x 761 km, 38.7° (Epoch: 01 December)

Event Time Altitude Azimuth Distance (km) Brightness Sun altitude
Rises 00:03:01 0° 261° (W) 2,902 ? -7.8°
Reaches altitude 10° 00:05:18 10° 266° (W) 2,045 ? -8.2°
Maximum altitude 00:10:00 56° 345° (NNW) 823 ? -9.2°
Enters shadow 00:14:41 12° 62° (ENE) 2,061 ? -10.1°
